Presure
347 340 333 353 320 327 343 334 322 306 295 281 275 268 265 262 264 278 289 278 293 278 272 280 274 267 272 267 250 250 246 242 242 246 245 242 245 244 260 260 261 264 278 304 302 311 346 397 371 368 331 324 320 321
338 335 336 314 327 310 335 322 307 295 282 276 266 265 260 262 280 280 275 269 289 264 257 259 261 258 253 253 256 252 247 241 242 242 254 257 265 260 257 261 282 287 282 295 310 368 380 360 360 326 311 317 315 307
358 336 324 356 316 337 322 306 294 282 276 266 263 257 258 264 286 277 269 270 274 270 256 265 253 249 257 257 257 259 258 260 259 258 263 255 257 259 282 282 271 290 288 292 350 344 373 335 349 316 302 297 303 288
335 335 339 320 320 321 306 293 282 277 268 265 256 258 261 288 277 272 265 261 270 275 263 255 258 262 260 255 254 262 262 257 254 255 257 274 285 279 274 276 288 268 293 338 335 326 355 328 326 302 301 297 292 286
330 329 312 311 320 307 293 282 276 269 267 256 257 259 259 273 269 275 261 266 262 260 259 256 259 260 260 255 258 257 256 258 268 281 271 274 270 261 285 281 296 290 361 333 315 312 325 318 314 296 288 290 284 290
324 331 310 319 308 296 283 276 270 269 259 257 257 259 256 276 269 265 260 262 267 266 255 260 262 268 266 265 270 275 270 265 271 266 264 257 281 277 289 295 299 313 343 320 302 302 317 304 314 292 282 289 282 284
333 322 327 309 298 285 279 269 270 264 257 257 256 256 255 287 275 267 260 259 256 260 256 254 257 257 258 261 258 263 269 267 266 269 274 271 281 289 293 293 306 349 341 314 296 291 309 303 287 307 280 290 274 283
357 314 312 302 291 281 272 270 266 259 256 256 255 254 256 286 279 272 267 263 260 259 258 259 258 261 261 269 267 264 264 256 265 280 287 291 285 292 347 362 352 334 331 319 299 285 282 288 297 286 290 293 280 272
311 316 305 294 283 278 269 269 261 257 255 256 256 254 254 277 277 276 269 265 264 261 257 259 263 267 268 262 256 252 267 284 289 287 283 287 371 362 358 351 339 327 321 331 317 285 277 283 293 280 283 281 295 291
308 311 298 290 280 275 268 267 259 256 257 255 254 251 255 269 270 269 265 265 265 269 264 264 265 257 258 263 268 265 281 284 283 310 463 480 472 360 340 342 330 327 311 322 322 305 287 275 277 284 267 279 271 248
310 303 294 286 279 270 266 264 260 256 257 255 250 250 253 258 263 274 271 268 264 264 264 262 258 262 271 273 276 274 284 287 392 446 441 433 439 427 335 325 320 312 294 310 319 318 298 280 275 279 277 281 280 268
307 296 293 282 279 269 266 261 264 258 254 256 252 254 254 258 259 258 263 264 261 259 255 261 265 267 268 270 277 281 303 426 422 429 428 428 397 386 339 314 321 338 336 331 326 332 326 307 287 286 263 274 277 279
301 295 290 282 278 272 266 266 263 257 256 255 252 256 255 254 256 259 259 256 259 263 266 265 262 265 280 280 277 354 407 409 376 373 363 358 354 348 350 341 328 322 326 333 342 353 336 337 270 298 285 284 287 259
297 293 290 283 277 276 269 267 262 257 257 255 255 251 253 250 249 251 260 267 268 259 263 262 269 274 283 292 359 382 367 359 347 340 333 336 336 331 323 319 321 322 325 329 300 337 334 328 328 325 297 280 270 262
299 293 290 283 279 275 271 269 263 258 256 256 256 256 256 261 264 261 258 257 258 263 263 270 277 282 299 357 394 380 351 341 333 327 332 329 318 310 308 296 301 304 302 305 305 302 296 285 271 263 262 259 259 257
298 292 290 284 281 276 270 271 266 263 262 262 258 256 260 260 262 260 259 263 266 266 269 276 286 299 354 388 358 345 343 333 331 331 320 306 308 297 287 293 279 278 275 276 275 269 265 264 260 258 254 250 253 261
301 294 290 284 283 280 272 266 265 262 259 258 257 257 256 257 260 261 261 258 267 274 277 278 296 356 381 361 344 340 333 330 332 315 300 298 287 275 286 272 275 272 269 267 261 259 259 257 247 249 258 241 251 249
309 300 293 285 282 282 277 271 263 264 259 261 259 260 259 259 265 261 265 270 272 275 274 291 345 376 364 347 336 333 324 327 307 297 292 302 277 270 280 273 265 265 258 258 251 249 246 255 237 246 249 247 225 243
310 305 296 295 289 279 276 274 273 268 266 265 267 266 264 268 270 272 271 266 281 282 291 318 371 373 353 334 326 329 322 306 296 297 297 283 261 267 273 258 261 255 250 247 249 254 247 248 244 239 238 251 258 257
311 309 305 298 294 290 286 281 279 274 268 270 270 271 272 273 276 272 274 281 281 293 302 340 363 341 347 314 332 314 315 295 300 291 276 274 273 259 260 254 256 249 249 239 248 242 239 236 245 245 236 234 252 245
315 308 306 300 292 289 287 280 279 278 277 277 276 281 283 280 279 280 283 285 295 303 348 349 352 332 337 335 312 302 299 297 287 267 278 265 261 256 256 238 250 241 247 239 244 236 244 240 236 240 242 239 237 249
319 317 309 306 299 294 291 287 285 285 287 287 285 286 285 284 286 285 293 298 308 331 342 365 328 334 311 318 275 300 290 275 268 276 261 260 255 237 245 248 242 239 246 235 240 239 236 232 228 223 238 240 237 245
323 321 317 312 309 305 300 299 296 295 293 289 288 291 293 294 297 298 307 322 338 346 337 339 327 303 316 326 305 288 270 270 270 260 250 254 239 243 247 244 245 246 237 238 239 238 240 248 248 232 237 234 235 252
325 319 317 315 310 304 305 301 299 298 297 296 297 297 300 302 317 326 330 356 340 323 356 332 336 312 325 307 286 262 265 271 261 250 252 238 242 244 238 242 238 241 236 239 237 234 230 242 249 240 248 235 239 245
332 328 321 318 316 312 310 309 309 308 309 311 313 320 322 324 337 351 345 325 321 353 299 339 315 317 300 281 276 264 266 262 252 253 246 245 242 237 240 247 238 238 241 238 236 234 236 233 234 242 257 252 256 257
330 331 329 328 326 325 325 323 324 322 320 319 321 330 341 338 334 324 316 321 352 325 339 329 315 296 285 274 269 270 263 250 250 245 244 244 238 244 238 239 236 239 240 233 237 232 234 237 231 239 240 244 257 260
321 320 323 320 316 318 320 319 323 328 336 338 331 327 324 322 316 308 315 333 333 334 323 310 317 288 280 262 269 265 261 251 248 244 247 247 231 245 232 242 240 238 236 240 235 238 233 240 237 237 245 241 257 252
328 332 335 336 336 337 338 334 331 326 323 320 319 316 315 312 307 313 332 331 327 317 295 307 292 278 273 259 267 261 256 250 246 245 243 239 226 243 240 241 241 241 239 240 235 238 236 240 244 245 247 247 261 249
335 332 333 326 328 326 323 326 326 325 319 315 309 308 306 304 316 339 336 328 325 300 311 302 286 274 272 261 265 255 249 248 239 244 245 237 235 241 247 243 241 240 240 238 241 241 241 239 239 248 248 249 243 258
317 312 311 314 314 312 313 315 314 310 311 307 301 302 303 318 326 333 333 323 301 301 311 301 285 272 272 265 265 259 249 247 240 242 244 244 242 247 244 242 241 242 242 237 238 242 243 243 243 245 246 249 248 261
311 316 321 314 305 307 315 316 309 309 311 308 303 299 307 321 320 324 325 303 294 300 308 299 283 274 268 268 264 257 263 253 247 244 246 243 240 248 248 245 241 242 242 239 241 247 239 246 243 243 245 244 258 250
298 307 322 319 314 313 320 320 313 307 313 316 309 303 301 317 327 321 312 301 296 305 301 307 285 276 268 265 274 254 261 260 253 250 247 246 249 252 253 253 247 243 235 242 248 245 245 241 242 247 239 251 259 238
291 298 296 296 302 312 328 337 330 305 300 314 323 315 299 303 316 326 323 297 309 307 310 300 296 280 277 262 268 274 257 259 261 255 250 247 245 247 253 255 253 246 247 247 248 242 244 249 241 245 246 261 248 263
Wind_Speed
50 49 45 39 42 40 41 46 49 50 50 48 46 42 39 36 32 30 28 27 25 28 27 24 30 31 31 36 37 37 36 36 38 41 41 40 43 44 52 52 52 51 56 55 51 45 27 2 6 15 20 18 20 22
50 49 45 40 42 45 47 51 52 52 50 48 44 41 38 35 33 33 30 28 26 31 29 28 28 28 29 32 37 39 39 36 39 39 49 50 51 48 49 51 55 52 47 45 39 16 6 8 16 30 20 22 29 30
55 53 36 40 45 47 53 53 53 52 50 47 44 41 38 35 38 34 32 29 28 32 30 29 29 30 33 33 34 35 38 41 44 45 46 44 44 45 49 44 42 44 39 38 14 11 10 13 23 27 25 27 36 36
50 45 42 48 49 53 55 56 55 53 50 46 43 41 37 38 37 36 33 30 28 29 32 32 32 32 33 33 35 38 38 38 38 40 42 46 43 42 40 39 39 36 33 15 12 3 19 19 30 31 34 37 39 40
49 46 51 51 54 58 58 58 56 53 49 46 43 40 36 36 35 37 32 31 31 32 31 30 30 31 32 30 32 33 35 38 41 38 39 40 40 36 41 37 32 31 13 12 13 2 13 20 35 34 33 34 36 38
51 53 55 56 59 61 61 58 55 52 48 45 42 37 34 37 35 32 32 32 30 32 29 29 28 30 30 31 32 32 33 35 35 36 38 36 42 40 38 34 30 25 16 16 14 9 20 19 29 38 32 39 36 41
51 55 57 60 62 62 60 57 54 49 47 45 40 37 34 38 37 35 34 31 29 28 27 26 26 26 27 28 30 32 32 34 36 39 39 40 40 39 37 34 27 18 20 20 19 15 15 27 20 35 32 40 33 42
50 57 61 62 63 62 60 56 52 50 48 44 39 36 33 36 36 36 34 31 30 28 27 26 26 27 28 29 29 31 33 33 38 39 38 38 37 39 29 22 20 21 22 25 26 21 18 19 28 26 32 35 41 34
61 61 62 64 64 61 58 55 53 50 46 43 39 36 32 32 33 33 32 30 28 27 26 27 28 27 28 29 30 31 35 35 37 37 37 39 35 26 23 23 22 23 23 29 33 27 25 21 24 22 26 25 31 40
64 65 66 66 64 62 57 54 52 49 44 41 37 34 31 30 30 29 28 27 26 27 28 27 26 27 29 31 33 34 33 35 35 41 24 17 23 30 25 23 21 23 22 27 33 38 36 26 23 26 23 23 19 26
65 66 66 66 63 62 56 54 52 48 44 40 37 35 31 28 27 27 27 26 26 27 26 25 27 28 27 29 30 32 34 37 36 17 9 7 19 25 24 21 20 20 18 22 28 36 41 34 29 29 26 25 24 15
66 67 66 65 63 60 57 53 51 47 42 40 36 33 30 28 27 25 25 25 26 26 25 25 24 25 27 29 31 33 35 11 7 7 9 17 24 25 23 19 17 19 19 19 21 24 34 43 36 31 21 17 18 17
65 66 65 64 62 61 56 53 50 45 41 38 35 32 30 27 26 26 27 27 27 24 21 22 24 25 29 31 30 29 2 15 19 28 29 31 30 26 26 26 21 18 13 13 17 22 27 27 17 22 14 13 11 12
66 65 64 64 61 59 58 54 51 46 43 40 37 32 30 30 29 28 28 23 19 22 21 22 24 27 29 32 25 4 7 18 20 23 25 29 31 34 32 28 27 25 23 21 17 23 27 25 20 14 17 14 11 10
67 63 62 61 60 59 58 55 51 46 42 40 37 35 34 32 29 27 24 23 22 20 21 24 27 27 29 21 10 19 20 20 21 26 28 37 38 35 35 34 32 34 34 33 33 34 32 28 22 17 13 9 6 8
62 61 61 61 60 58 54 52 49 46 43 40 38 35 31 28 26 24 23 23 22 21 23 25 27 28 21 9 14 19 22 23 26 31 41 36 37 37 33 36 31 29 28 28 28 25 22 19 13 9 6 6 9 9
61 61 59 58 57 56 54 49 47 44 41 38 35 32 29 27 27 26 24 23 23 22 25 26 27 19 6 15 19 21 23 28 34 41 34 35 35 28 37 28 30 28 26 25 20 17 14 11 6 5 3 11 9 13
59 59 57 57 54 53 51 49 46 44 40 39 35 34 31 29 29 26 25 25 24 24 25 26 21 8 17 19 16 20 28 34 39 35 35 38 32 27 32 29 26 25 19 18 15 11 7 8 6 5 7 11 14 18
53 54 55 54 53 51 50 49 48 45 42 40 38 36 33 32 30 29 28 25 25 24 25 23 10 14 19 17 21 26 36 41 37 38 39 36 24 27 29 22 24 18 15 11 10 9 6 2 5 9 14 17 21 25
48 49 50 49 48 49 49 48 46 44 42 41 38 37 36 33 31 29 28 27 25 26 24 15 13 15 19 22 26 38 41 38 38 39 32 30 31 25 24 19 18 14 13 7 8 8 8 9 8 12 17 20 25 29
44 44 44 46 47 47 47 46 45 43 43 41 38 37 36 33 31 30 30 28 28 28 19 15 17 20 21 27 35 35 37 40 39 27 31 29 27 23 21 11 16 11 12 12 8 9 5 9 14 18 21 25 27 35
40 42 43 44 45 45 45 44 44 42 40 40 39 38 36 34 32 31 32 30 29 24 18 19 25 24 29 32 30 38 40 32 28 31 28 26 23 14 16 16 13 12 10 11 7 8 12 15 17 21 26 30 32 39
36 37 38 39 39 40 41 40 40 38 38 37 37 37 35 34 33 32 32 29 24 22 17 25 30 31 31 33 42 43 33 31 32 30 24 25 17 17 17 15 14 12 11 10 10 13 16 19 22 25 29 32 36 43
33 34 34 35 35 36 36 35 36 37 38 37 36 35 34 33 32 30 27 22 21 21 26 33 34 35 36 44 44 32 32 35 32 27 27 20 19 19 17 17 15 13 14 13 14 16 18 22 25 30 34 36 42 46
28 30 31 32 33 34 34 35 35 34 34 34 34 32 29 27 25 22 22 20 21 24 28 35 39 39 46 42 40 33 33 33 30 29 24 23 22 20 19 16 15 15 15 16 17 19 22 25 29 34 38 42 46 50
21 22 24 25 26 27 28 28 28 28 27 27 26 24 22 22 23 22 20 21 23 31 36 39 42 47 45 38 34 34 33 29 29 25 23 24 22 22 22 20 17 17 18 20 21 23 26 30 30 37 41 45 50 54
21 21 21 23 23 24 25 25 24 23 22 21 22 23 24 24 24 23 22 23 29 35 38 40 44 46 41 32 34 34 33 30 27 26 28 27 19 25 19 21 21 21 22 23 25 27 28 34 35 38 45 47 55 55
16 17 18 19 19 19 19 19 21 23 23 23 24 24 24 24 23 22 24 28 32 37 36 42 47 42 39 32 34 33 33 30 30 30 29 26 19 26 25 24 24 24 25 27 26 30 32 36 40 44 48 51 60 57
14 16 17 17 17 19 20 22 23 23 24 24 24 23 22 22 22 23 27 32 35 37 39 45 48 42 40 34 36 35 32 32 28 32 32 28 25 28 28 28 28 28 29 29 31 32 35 37 40 47 51 55 55 66
13 14 13 14 16 17 19 21 22 23 25 26 25 24 22 20 21 23 27 34 36 37 40 46 48 41 41 36 37 36 34 34 32 33 33 33 32 32 32 31 31 32 33 30 32 35 38 40 43 48 53 57 59 69
9 11 14 19 22 23 23 24 25 25 27 29 28 27 24 23 24 26 31 38 37 39 40 46 48 44 40 40 39 37 38 38 37 37 37 35 32 35 36 35 33 34 35 33 35 40 38 44 46 50 54 56 67 62
10 11 15 18 21 22 23 25 27 25 26 28 29 28 25 24 27 30 36 39 38 39 41 44 49 48 42 39 44 38 40 41 41 40 38 37 38 39 39 40 39 37 31 37 40 40 43 44 48 54 52 61 68 54
17 18 18 17 17 17 20 23 24 24 24 26 27 29 27 26 26 31 35 38 39 39 41 44 48 50 49 40 42 45 41 42 43 43 40 38 37 38 41 43 43 41 41 41 42 40 45 50 49 54 57 67 59 74
Wind_Direction
174 184 194 187 179 176 176 177 174 176 179 184 188 194 199 205 208 207 202 201 192 194 198 196 204 213 219 220 225 231 235 241 245 249 253 258 261 266 270 270 271 277 283 288 290 291 298 287 118 135 164 164 169 167
182 188 193 175 180 176 174 172 172 175 177 182 188 193 197 200 194 197 198 202 192 201 207 208 209 215 220 225 229 235 241 245 249 253 257 262 265 264 268 274 279 285 288 289 291 309 311 142 142 159 172 173 161 156
176 191 187 182 174 174 172 170 171 174 178 183 188 193 196 196 189 194 198 199 197 203 210 212 217 225 229 230 234 237 241 245 250 256 260 261 266 271 277 279 285 284 288 289 291 310 189 165 157 167 172 178 168 172
178 180 170 173 172 171 169 170 172 176 179 183 190 193 193 189 190 193 198 201 202 203 212 218 224 226 231 236 242 245 247 252 257 261 265 270 273 275 279 282 282 284 289 269 278 327 170 160 163 173 173 179 182 187
178 174 173 171 171 169 170 171 175 178 179 187 189 191 191 189 194 196 199 202 206 209 213 221 228 233 237 241 245 250 254 259 264 268 269 272 275 281 281 281 282 283 240 220 256 188 192 163 172 183 189 185 192 192
179 174 170 171 170 170 171 174 179 177 182 187 190 189 191 193 198 196 202 206 209 214 220 226 232 238 241 247 253 257 258 260 264 267 271 278 276 278 280 281 284 278 218 211 236 201 177 185 173 189 198 199 203 204
178 170 171 170 170 172 173 178 178 178 184 189 188 188 193 196 201 201 207 208 214 218 222 229 236 240 244 248 251 257 260 263 266 268 270 273 276 278 279 280 275 233 210 202 213 217 179 190 196 186 206 204 215 214
170 172 170 171 171 174 178 179 177 182 187 188 188 190 193 194 200 205 211 213 219 223 228 235 240 245 250 255 257 261 265 270 271 273 275 276 275 280 272 252 236 224 215 196 191 212 212 204 205 205 201 208 219 228
171 171 171 172 173 177 180 179 180 186 189 187 188 190 193 194 199 205 210 217 222 227 232 238 243 249 252 257 263 268 269 278 279 280 280 280 274 262 242 229 224 218 214 199 186 207 215 214 216 215 221 220 218 223
172 172 172 174 176 179 181 180 184 188 188 187 190 191 195 198 202 206 212 218 224 229 234 240 247 253 258 263 267 271 280 283 285 290 291 265 230 237 230 217 215 211 208 209 199 194 207 217 210 221 211 233 223 219
171 172 174 175 178 181 182 183 188 190 189 189 192 195 197 200 202 205 210 216 222 229 236 243 250 257 268 274 279 280 289 293 303 317 295 217 189 190 207 207 207 208 214 216 213 203 205 216 213 218 224 231 234 225
172 174 176 177 180 183 185 189 189 191 191 193 195 197 200 203 207 210 213 219 227 233 242 249 258 266 272 278 287 292 300 302 2 26 107 135 136 148 179 194 199 190 194 205 212 214 212 211 216 219 225 217 239 251
174 176 178 180 182 186 187 189 192 193 194 196 199 201 203 207 211 216 221 229 234 240 251 259 264 274 288 288 292 302 228 126 118 114 117 120 125 130 123 121 136 152 168 211 228 223 200 202 215 217 210 215 228 239
178 179 180 183 185 187 189 191 194 195 196 198 201 203 206 211 216 220 225 230 243 243 257 266 279 282 289 295 306 232 188 151 133 126 124 122 122 127 131 129 122 121 116 117 148 139 144 144 144 141 137 145 169 208
179 181 183 185 188 189 191 192 195 198 200 202 204 207 211 215 219 222 227 234 243 257 266 276 281 286 299 305 173 158 158 145 142 136 133 134 136 135 127 124 120 119 116 116 116 117 121 128 138 153 163 183 213 248
180 183 186 188 191 193 194 194 197 200 203 205 207 209 214 218 225 230 235 246 255 263 270 278 288 300 310 186 166 168 155 148 145 143 142 143 139 135 134 130 135 131 126 125 127 131 137 141 147 156 189 240 259 285
184 186 189 192 194 196 197 198 200 203 205 208 211 214 216 222 231 236 241 244 258 270 275 276 296 303 206 173 169 163 159 151 146 147 149 145 143 151 141 143 139 136 136 133 137 135 131 132 164 214 227 270 304 305
189 190 193 195 196 198 201 203 205 207 209 214 215 220 223 227 236 238 246 255 261 265 268 287 301 233 182 180 175 164 156 155 155 154 153 148 151 148 147 146 148 141 143 137 141 150 173 173 253 268 316 310 305 313
191 192 196 200 201 202 204 207 210 212 214 218 222 225 228 235 240 246 250 250 267 271 281 295 247 198 187 176 168 163 159 159 157 156 152 154 153 152 149 155 148 151 152 157 168 175 198 237 283 292 300 324 326 324
194 196 198 199 202 205 208 211 213 215 218 223 226 231 235 239 243 244 252 261 264 276 282 265 213 179 185 173 171 167 165 164 158 158 160 156 152 157 157 163 157 160 166 185 181 214 239 273 321 325 314 313 330 325
195 198 200 200 201 205 207 211 214 217 222 227 230 236 239 241 245 251 258 261 271 274 258 231 188 176 181 177 171 170 169 167 163 160 160 159 161 161 162 184 171 183 187 219 218 264 304 318 311 323 321 321 320 329
192 197 201 204 205 208 212 215 218 222 227 230 234 238 242 245 249 252 259 262 268 263 235 205 183 176 172 177 175 171 168 170 166 162 164 168 167 175 183 189 198 216 212 252 264 286 296 303 308 311 321 324 324 326
191 195 199 204 208 211 214 218 223 227 231 232 236 241 245 249 252 254 259 259 251 226 209 189 181 182 178 180 173 172 170 169 168 170 172 174 181 189 196 202 212 218 244 260 278 295 303 312 313 314 318 322 324 320
191 195 199 203 206 210 214 218 222 227 231 235 238 243 246 251 253 249 247 233 215 206 194 188 186 178 178 171 174 174 174 174 174 178 180 188 195 199 213 218 231 233 259 274 287 300 303 315 318 320 318 321 319 319
190 194 198 203 208 212 216 220 224 229 232 236 240 241 241 241 240 227 211 205 204 198 192 186 182 179 174 178 182 179 178 178 181 186 192 197 206 219 227 224 241 257 267 279 291 298 308 313 318 321 321 319 324 326
184 191 196 201 207 211 214 217 220 223 226 229 231 232 222 211 205 201 198 200 196 194 190 185 182 179 182 186 185 184 184 188 192 198 203 209 221 224 237 244 255 264 274 283 292 298 308 313 315 318 319 321 328 329
186 192 199 201 204 210 215 217 219 221 221 212 204 201 200 199 199 198 199 199 196 195 190 188 183 188 189 189 190 190 191 195 200 207 212 217 240 231 258 248 257 267 278 285 293 301 307 312 315 318 321 321 330 329
179 186 189 194 200 203 205 200 196 196 195 195 197 199 201 202 202 205 205 198 196 194 193 190 189 195 196 196 196 196 196 201 208 215 224 232 250 242 252 257 263 271 278 285 295 301 309 313 318 320 323 326 330 331
195 193 187 181 181 185 189 192 192 190 190 194 200 205 206 208 213 211 202 198 197 194 196 194 195 200 202 202 203 200 206 210 223 225 230 244 252 253 253 260 267 274 281 289 297 304 311 315 320 322 324 327 330 331
181 178 187 195 194 197 200 200 199 199 201 203 207 209 210 216 215 209 203 201 199 198 199 198 200 206 208 208 209 210 214 220 229 235 238 244 253 254 261 267 274 279 285 294 302 308 311 316 321 323 325 327 329 330
218 218 209 203 206 208 208 209 208 209 211 213 214 213 215 217 212 209 205 206 205 205 204 203 205 210 214 215 215 216 221 223 230 237 242 249 258 258 261 268 277 282 289 297 304 306 314 316 321 322 324 327 326 330
226 242 241 239 241 240 233 226 222 221 220 222 222 222 221 223 221 213 209 212 212 212 210 209 210 215 219 221 223 223 226 228 232 239 247 253 257 258 262 267 275 283 296 299 302 309 314 319 321 321 323 325 326 327
242 238 238 238 247 256 257 251 243 238 237 234 232 227 225 225 229 227 221 221 219 218 216 215 215 220 223 228 229 231 230 234 237 241 249 257 265 268 267 269 274 285 292 298 303 312 314 315 318 320 323 322 327 327